CSC8612 ZUZH-ZUUU

Flight info

Callsign CSC8612
Flight time 1h 2m
Altitude 31100
Route CEH W162 KAKMI W144 IGNAK
Aircraft A319/M-SDE3FGHIRWY/LB1

Departure

Time 2026-04-25 11:11
Airport Panzhihua Bao'anying Airport (ZUZH)

Arrival

Time 2026-04-25 12:14
Airport Chengdu Shuangliu International Airport (ZUUU)
Time Latitude Longitude Altitude Speed Heading
2026-04-25 10:58 26.53819 101.79515 6365 ft 0 kts 292°
2026-04-25 11:02 26.53818 101.79518 6384 ft 2 kts 292°
2026-04-25 11:02 26.53811 101.79538 6388 ft 3 kts 291°
2026-04-25 11:02 26.53805 101.79555 6395 ft 3 kts 294°
2026-04-25 11:03 26.53796 101.79572 6396 ft 3 kts 338°
2026-04-25 11:03 26.53782 101.79572 6398 ft 3 kts 30°
2026-04-25 11:03 26.53764 101.79560 6398 ft 3 kts 28°
2026-04-25 11:03 26.53757 101.79556 6398 ft 0 kts 21°
2026-04-25 11:04 26.53757 101.79555 6398 ft 0 kts 21°
2026-04-25 11:05 26.53774 101.79563 6398 ft 7 kts 21°
2026-04-25 11:06 26.53835 101.79590 6395 ft 12 kts 21°
2026-04-25 11:06 26.53912 101.79622 6398 ft 9 kts 20°
2026-04-25 11:06 26.53962 101.79649 6398 ft 5 kts 52°
2026-04-25 11:06 26.53951 101.79695 6397 ft 7 kts 112°
2026-04-25 11:07 26.53930 101.79752 6396 ft 8 kts 112°
2026-04-25 11:07 26.53927 101.79810 6397 ft 7 kts 66°
2026-04-25 11:07 26.53977 101.79842 6400 ft 10 kts 21°
2026-04-25 11:07 26.54060 101.79877 6402 ft 15 kts 21°
2026-04-25 11:08 26.54183 101.79929 6401 ft 23 kts 20°
2026-04-25 11:08 26.54352 101.79998 6404 ft 29 kts 20°
2026-04-25 11:08 26.54560 101.80090 6406 ft 32 kts 23°
2026-04-25 11:08 26.54749 101.80174 6411 ft 30 kts 20°
2026-04-25 11:09 26.54941 101.80257 6421 ft 29 kts 21°
2026-04-25 11:09 26.55075 101.80314 6423 ft 9 kts 20°
2026-04-25 11:09 26.55136 101.80313 6424 ft 7 kts 346°
2026-04-25 11:09 26.55169 101.80318 6424 ft 4 kts 32°
2026-04-25 11:10 26.55174 101.80347 6422 ft 5 kts 107°
2026-04-25 11:10 26.55167 101.80356 6423 ft 5 kts 139°
2026-04-25 11:10 26.55113 101.80333 6423 ft 0 kts 199°
2026-04-25 11:11 26.55106 101.80330 6423 ft 8 kts 199°
2026-04-25 11:11 26.54902 101.80243 6420 ft 57 kts 201°
2026-04-25 11:11 26.54362 101.80007 6413 ft 109 kts 201°
2026-04-25 11:11 26.53491 101.79631 6398 ft 159 kts 201°
2026-04-25 11:12 26.52435 101.79181 6862 ft 161 kts 200°
2026-04-25 11:12 26.51452 101.78601 7532 ft 159 kts 226°
2026-04-25 11:12 26.51011 101.77496 8087 ft 164 kts 266°
2026-04-25 11:12 26.51257 101.76193 8445 ft 178 kts 286°
2026-04-25 11:13 26.51632 101.74838 8733 ft 196 kts 284°
2026-04-25 11:13 26.52035 101.73291 8966 ft 220 kts 284°
2026-04-25 11:13 26.52471 101.71581 9464 ft 235 kts 284°
2026-04-25 11:13 26.52922 101.69807 10230 ft 238 kts 283°
2026-04-25 11:14 26.53218 101.68628 10769 ft 239 kts 283°
2026-04-25 11:14 26.53817 101.66225 11884 ft 240 kts 283°
2026-04-25 11:14 26.54263 101.64425 12665 ft 239 kts 282°
2026-04-25 11:14 26.54555 101.63238 13059 ft 241 kts 282°
2026-04-25 11:15 26.54990 101.61420 13342 ft 242 kts 278°
2026-04-25 11:15 26.55404 101.58865 13774 ft 258 kts 276°
2026-04-25 11:15 26.55579 101.57553 14096 ft 259 kts 276°
2026-04-25 11:15 26.55919 101.54885 14772 ft 260 kts 276°
2026-04-25 11:16 26.56344 101.51538 15515 ft 264 kts 276°
2026-04-25 11:16 26.56608 101.49495 15920 ft 267 kts 276°
2026-04-25 11:16 26.56878 101.47445 16396 ft 268 kts 277°
2026-04-25 11:17 26.57153 101.45380 16855 ft 270 kts 277°
2026-04-25 11:17 26.57427 101.43299 17251 ft 272 kts 277°
2026-04-25 11:17 26.57795 101.40516 17837 ft 275 kts 277°
2026-04-25 11:17 26.57984 101.39085 18136 ft 276 kts 277°
2026-04-25 11:18 26.58265 101.36955 18509 ft 278 kts 277°
2026-04-25 11:18 26.58548 101.34807 18882 ft 280 kts 277°
2026-04-25 11:18 26.58834 101.32650 19253 ft 282 kts 277°
2026-04-25 11:18 26.59123 101.30472 19628 ft 284 kts 277°
2026-04-25 11:19 26.59410 101.28280 20016 ft 285 kts 277°
2026-04-25 11:19 26.59697 101.26086 20407 ft 285 kts 277°
2026-04-25 11:19 26.59981 101.23914 20733 ft 288 kts 277°
2026-04-25 11:19 26.60274 101.21626 20905 ft 308 kts 277°
2026-04-25 11:20 26.60584 101.19176 21017 ft 328 kts 277°
2026-04-25 11:20 26.60912 101.16570 21140 ft 347 kts 277°
2026-04-25 11:20 26.61257 101.13844 21262 ft 364 kts 277°
2026-04-25 11:20 26.61621 101.10972 21385 ft 380 kts 277°
2026-04-25 11:21 26.61995 101.07994 21596 ft 393 kts 277°
2026-04-25 11:21 26.62379 101.04939 22015 ft 399 kts 277°
2026-04-25 11:21 26.62768 101.01860 22493 ft 403 kts 277°
2026-04-25 11:21 26.63164 100.98744 22969 ft 406 kts 277°
2026-04-25 11:22 26.63716 100.95629 23414 ft 412 kts 287°
2026-04-25 11:22 26.64967 100.92739 23810 ft 418 kts 303°
2026-04-25 11:22 26.66921 100.90319 24221 ft 424 kts 319°
2026-04-25 11:22 26.69456 100.88590 24633 ft 431 kts 335°
2026-04-25 11:23 26.72371 100.87753 25041 ft 438 kts 352°
2026-04-25 11:23 26.75428 100.87909 25457 ft 445 kts
2026-04-25 11:23 26.78369 100.89093 25841 ft 455 kts 27°
2026-04-25 11:23 26.80891 100.91267 26257 ft 461 kts 45°
2026-04-25 11:24 26.82985 100.93996 26679 ft 464 kts 49°
2026-04-25 11:24 26.85061 100.96784 27076 ft 467 kts 49°
2026-04-25 11:24 26.87135 100.99592 27519 ft 468 kts 49°
2026-04-25 11:24 26.89220 101.02414 27899 ft 472 kts 49°
2026-04-25 11:25 26.91315 101.05238 28283 ft 474 kts 49°
2026-04-25 11:25 26.93428 101.08079 28698 ft 475 kts 49°
2026-04-25 11:25 26.95555 101.10935 29049 ft 478 kts 49°
2026-04-25 11:25 26.97688 101.13799 29440 ft 480 kts 48°
2026-04-25 11:26 26.99830 101.16676 29803 ft 482 kts 48°
2026-04-25 11:26 27.01985 101.19576 30119 ft 485 kts 49°
2026-04-25 11:26 27.04142 101.22488 30481 ft 485 kts 49°
2026-04-25 11:26 27.06292 101.25393 30863 ft 483 kts 49°
2026-04-25 11:27 27.08433 101.28286 31009 ft 481 kts 49°
2026-04-25 11:27 27.10550 101.31145 31059 ft 472 kts 48°
2026-04-25 11:27 27.14037 101.35848 31061 ft 469 kts 48°
2026-04-25 11:28 27.18890 101.42396 31064 ft 469 kts 49°
2026-04-25 11:28 27.23059 101.48025 31075 ft 469 kts 49°
2026-04-25 11:29 27.27260 101.53626 31084 ft 468 kts 47°
2026-04-25 11:29 27.31453 101.59199 31082 ft 467 kts 47°
2026-04-25 11:30 27.35640 101.64795 31097 ft 468 kts 48°
2026-04-25 11:30 27.39821 101.70406 31099 ft 468 kts 48°
2026-04-25 11:31 27.44005 101.76029 31095 ft 468 kts 48°
2026-04-25 11:31 27.48178 101.81642 31089 ft 468 kts 48°
2026-04-25 11:32 27.52332 101.87229 31084 ft 468 kts 48°
2026-04-25 11:32 27.56516 101.92857 31082 ft 468 kts 48°
2026-04-25 11:33 27.60693 101.98502 31072 ft 468 kts 48°
2026-04-25 11:33 27.64868 102.04140 31081 ft 468 kts 48°
2026-04-25 11:34 27.69047 102.09770 31073 ft 468 kts 47°
2026-04-25 11:34 27.73200 102.15442 31070 ft 470 kts 51°
2026-04-25 11:35 27.76426 102.21833 31070 ft 473 kts 61°
2026-04-25 11:35 27.79418 102.28456 31069 ft 473 kts 60°
2026-04-25 11:36 27.82427 102.35067 31072 ft 473 kts 60°
2026-04-25 11:36 27.85427 102.41684 31072 ft 473 kts 60°
2026-04-25 11:37 27.88431 102.48316 31088 ft 473 kts 60°
2026-04-25 11:37 27.91416 102.54942 31087 ft 474 kts 60°
2026-04-25 11:38 27.94407 102.61586 31086 ft 474 kts 60°
2026-04-25 11:38 27.97395 102.68238 31078 ft 474 kts 61°
2026-04-25 11:39 28.00379 102.74881 31082 ft 474 kts 60°
2026-04-25 11:39 28.03344 102.81486 31080 ft 474 kts 60°
2026-04-25 11:40 28.06316 102.88125 31080 ft 474 kts 60°
2026-04-25 11:40 28.09294 102.94794 31082 ft 474 kts 61°
2026-04-25 11:41 28.12280 103.01482 31081 ft 475 kts 60°
2026-04-25 11:41 28.15253 103.08162 31077 ft 475 kts 61°
2026-04-25 11:42 28.18220 103.14857 31083 ft 475 kts 60°
2026-04-25 11:42 28.21178 103.21519 31069 ft 475 kts 60°
2026-04-25 11:43 28.24164 103.28255 31068 ft 475 kts 60°
2026-04-25 11:43 28.27101 103.34901 31075 ft 475 kts 60°
2026-04-25 11:44 28.30063 103.41613 31071 ft 474 kts 60°
2026-04-25 11:44 28.33011 103.48307 31069 ft 474 kts 60°
2026-04-25 11:45 28.35960 103.55004 31052 ft 474 kts 60°
2026-04-25 11:45 28.38898 103.61698 31049 ft 473 kts 60°
2026-04-25 11:46 28.41833 103.68391 31028 ft 473 kts 60°
2026-04-25 11:46 28.44778 103.75086 31020 ft 473 kts 60°
2026-04-25 11:47 28.47710 103.81755 31002 ft 473 kts 60°
2026-04-25 11:47 28.50641 103.88452 31013 ft 473 kts 60°
2026-04-25 11:48 28.53549 103.95117 31009 ft 473 kts 60°
2026-04-25 11:48 28.56459 104.01810 30996 ft 472 kts 60°
2026-04-25 11:49 28.59373 104.08518 30976 ft 472 kts 60°
2026-04-25 11:49 28.62297 104.15219 30970 ft 472 kts 60°
2026-04-25 11:50 28.65444 104.21746 30947 ft 466 kts 49°
2026-04-25 11:50 28.67626 104.24436 30961 ft 459 kts 37°
2026-04-25 11:50 28.70186 104.26534 30966 ft 452 kts 25°
2026-04-25 11:51 28.73030 104.27990 30954 ft 444 kts 14°
2026-04-25 11:51 28.76019 104.28755 30955 ft 438 kts
2026-04-25 11:51 28.82021 104.28667 30952 ft 433 kts 354°
2026-04-25 11:52 28.88025 104.28332 30944 ft 432 kts 354°
2026-04-25 11:52 28.91041 104.28171 30798 ft 433 kts 354°
2026-04-25 11:52 28.94049 104.28010 30559 ft 434 kts 354°
2026-04-25 11:53 28.97070 104.27845 30320 ft 434 kts 354°
2026-04-25 11:53 29.00085 104.27679 30088 ft 435 kts 354°
2026-04-25 11:53 29.03110 104.27513 29512 ft 432 kts 354°
2026-04-25 11:53 29.06124 104.27350 28499 ft 435 kts 354°
2026-04-25 11:54 29.09156 104.27186 27413 ft 439 kts 355°
2026-04-25 11:54 29.12214 104.27018 26392 ft 441 kts 355°
2026-04-25 11:54 29.18279 104.26684 24896 ft 432 kts 355°
2026-04-25 11:55 29.21268 104.26518 24176 ft 428 kts 355°
2026-04-25 11:55 29.24225 104.26355 23545 ft 424 kts 355°
2026-04-25 11:55 29.27164 104.26073 23022 ft 424 kts 350°
2026-04-25 11:55 29.30026 104.25324 22427 ft 421 kts 343°
2026-04-25 11:56 29.32841 104.24442 21847 ft 419 kts 344°
2026-04-25 11:56 29.35641 104.23572 21283 ft 416 kts 344°
2026-04-25 11:56 29.38435 104.22708 20720 ft 414 kts 344°
2026-04-25 11:56 29.41209 104.21854 20178 ft 412 kts 345°
2026-04-25 11:57 29.43974 104.21004 19625 ft 411 kts 345°
2026-04-25 11:57 29.46734 104.20154 19095 ft 410 kts 345°
2026-04-25 11:57 29.49484 104.19307 18573 ft 408 kts 345°
2026-04-25 11:57 29.52217 104.18464 18046 ft 406 kts 345°
2026-04-25 11:58 29.54944 104.17618 17453 ft 404 kts 345°
2026-04-25 11:58 29.57618 104.16790 16877 ft 403 kts 344°
2026-04-25 11:58 29.60351 104.15944 16305 ft 401 kts 344°
2026-04-25 11:58 29.63040 104.15111 15746 ft 399 kts 344°
2026-04-25 11:59 29.65675 104.14292 15218 ft 398 kts 344°
2026-04-25 11:59 29.68340 104.13464 14676 ft 396 kts 344°
2026-04-25 11:59 29.71000 104.12639 14200 ft 395 kts 344°
2026-04-25 12:00 29.76282 104.10994 13247 ft 392 kts 343°
2026-04-25 12:00 29.78902 104.10175 12743 ft 389 kts 343°
2026-04-25 12:00 29.83995 104.08590 11752 ft 367 kts 343°
2026-04-25 12:01 29.86394 104.07841 11270 ft 348 kts 343°
2026-04-25 12:01 29.88680 104.07128 10799 ft 333 kts 343°
2026-04-25 12:01 29.90875 104.06444 10333 ft 321 kts 343°
2026-04-25 12:01 29.93004 104.05781 9872 ft 312 kts 344°
2026-04-25 12:02 29.97089 104.04505 8874 ft 298 kts 344°
2026-04-25 12:02 29.99081 104.03879 8379 ft 295 kts 344°
2026-04-25 12:02 30.01049 104.03263 7888 ft 292 kts 344°
2026-04-25 12:03 30.02994 104.02655 7611 ft 283 kts 344°
2026-04-25 12:03 30.04834 104.02081 7564 ft 266 kts 344°
2026-04-25 12:03 30.06583 104.01534 7442 ft 254 kts 344°
2026-04-25 12:03 30.07693 104.01186 7363 ft 247 kts 344°
2026-04-25 12:04 30.09886 104.00498 7210 ft 243 kts 344°
2026-04-25 12:04 30.11510 103.99990 7091 ft 241 kts 344°
2026-04-25 12:04 30.12584 103.99652 7013 ft 241 kts 344°
2026-04-25 12:04 30.14198 103.99143 6893 ft 240 kts 344°
2026-04-25 12:05 30.16353 103.98466 6735 ft 240 kts 344°
2026-04-25 12:05 30.17418 103.98131 6660 ft 240 kts 344°
2026-04-25 12:05 30.19566 103.97457 6501 ft 239 kts 344°
2026-04-25 12:05 30.21169 103.96953 6391 ft 238 kts 344°
2026-04-25 12:06 30.22748 103.96458 6274 ft 238 kts 345°
2026-04-25 12:06 30.23826 103.96120 6194 ft 237 kts 345°
2026-04-25 12:06 30.25417 103.95619 6071 ft 237 kts 345°
2026-04-25 12:06 30.27301 103.94703 5912 ft 232 kts 322°
2026-04-25 12:07 30.28378 103.93362 5784 ft 226 kts 300°
2026-04-25 12:07 30.29009 103.91730 5669 ft 220 kts 289°
2026-04-25 12:07 30.29570 103.90105 5538 ft 215 kts 290°
2026-04-25 12:07 30.30126 103.88522 5417 ft 210 kts 292°
2026-04-25 12:08 30.30937 103.87139 5283 ft 206 kts 313°
2026-04-25 12:08 30.32054 103.86190 5183 ft 199 kts 333°
2026-04-25 12:08 30.33363 103.85720 5057 ft 191 kts 352°
2026-04-25 12:08 30.34641 103.85748 4927 ft 183 kts 11°
2026-04-25 12:09 30.35818 103.86184 4859 ft 173 kts 24°
2026-04-25 12:09 30.36934 103.86699 4699 ft 173 kts 23°
2026-04-25 12:09 30.38049 103.87215 4499 ft 173 kts 23°
2026-04-25 12:09 30.39168 103.87733 4272 ft 172 kts 23°
2026-04-25 12:10 30.40263 103.88240 4070 ft 164 kts 23°
2026-04-25 12:10 30.41274 103.88708 3858 ft 150 kts 24°
2026-04-25 12:10 30.42223 103.89149 3668 ft 145 kts 24°
2026-04-25 12:10 30.43151 103.89580 3490 ft 142 kts 24°
2026-04-25 12:11 30.44062 103.90003 3319 ft 140 kts 24°
2026-04-25 12:11 30.44968 103.90423 3144 ft 140 kts 24°
2026-04-25 12:11 30.45870 103.90843 2965 ft 140 kts 23°
2026-04-25 12:11 30.46783 103.91274 2738 ft 142 kts 23°
2026-04-25 12:12 30.47696 103.91702 2609 ft 141 kts 26°
2026-04-25 12:12 30.48297 103.91983 2502 ft 139 kts 24°
2026-04-25 12:12 30.49495 103.92518 2257 ft 135 kts 22°
2026-04-25 12:12 30.50364 103.92923 2035 ft 134 kts 22°
2026-04-25 12:13 30.51215 103.93328 1865 ft 134 kts 22°
2026-04-25 12:13 30.52071 103.93730 1689 ft 132 kts 21°
2026-04-25 12:13 30.52819 103.94075 1668 ft 95 kts 22°
2026-04-25 12:13 30.53299 103.94297 1670 ft 60 kts 21°
2026-04-25 12:14 30.53534 103.94347 1665 ft 31 kts 355°